Regional Weather Roundup
Issued by NWS

Home | Current Version | Previous Version | Graphics & Text | Print | Product List | Glossary On
Versions: 1 2 3 4 5 6 7 8 9 10 11 12 13 14 15 16 17 18 19 20 21 22 23 24 25 26 27 28 29 30 31 32 33 34 35 36 37 38 39 40 41 42 43 44 45 46 47 48 49 50
000
ASUS43 KLMK 251802
RWRKY
KENTUCKY REGIONAL WEATHER ROUNDUP
NATIONAL WEATHER SERVICE LOUISVILLE KY
200 PM EDT MON MAY 25 2015

NOTE "FAIR" INDICATES FEW OR NO CLOUDS BELOW 12,000 FEET
WITH NO SIGNIFICANT WEATHER AND/OR OBSTRUCTIONS TO VISIBILITY.

KYZ001>023-026-027-061>063-070>075-251900-
WESTERN AND SOUTH CENTRAL KENTUCKY

CITY           SKY/WX    TMP DP  RH WIND       PRES   REMARKS
PADUCAH        CLOUDY    76  68  76 S14       30.07F
HENDERSON      CLOUDY    73  64  73 S16       30.09F
OWENSBORO      LGT RAIN  73  68  84 S18       30.12F
HOPKINSVILLE   DRIZZLE   68  68 100 SE7       30.14S FOG
BOWLING GREEN  LGT RAIN  71  65  81 S9        30.17F
GLASGOW        NOT AVBL
$$

KYZ024-025-028>034-038-045-046-053-251900-
NORTH CENTRAL KENTUCKY

CITY           SKY/WX    TMP DP  RH WIND       PRES   REMARKS
LOUISVILLE/SDF CLOUDY    71  67  87 S14       30.16S
LOUISVILLE/LOU LGT RAIN  70  66  87 S8        30.17F
FORT KNOX      LGT RAIN  69  67  92 S10       30.16S
$$

KYZ035>037-039>044-047>052-055>060-089>105-251900-
NORTHEAST KENTUCKY

CITY           SKY/WX    TMP DP  RH WIND       PRES   REMARKS
LEXINGTON      CLOUDY    78  60  53 SW16G26   30.20R
COVINGTON      LGT RAIN  70  64  81 SW13G23   30.16R
FRANKFORT      CLOUDY    76  61  59 SW15G28   30.18R
$$

KYZ054-064>069-076>088-106>120-251900-
SOUTHEAST KENTUCKY

CITY           SKY/WX    TMP DP  RH WIND       PRES   REMARKS
JACKSON        MOSUNNY   83  61  47 VRB6      30.22F
LONDON         CLOUDY    79  57  46 S9        30.22F
SOMERSET       NOT AVBL
MIDDLESBORO    CLOUDY    80  60  51 CALM      30.24F
MONTICELLO     CLOUDY    79  64  59 S13       30.23F
$$



USA.gov is the U.S. government's official web portal to all federal, state and local government web resources and services.